[[{"header":{"parameterUnit":"m.s-1","parameterCategory":1,"la1":30.2991,"la2":30.254,"lo1":-89.0895,"lo2":-89.0444,"dy":0.0017,"dx":0.0017,"nx":28,"ny":28,"refTime":"2025-06-15T09:00:00:Z","depth":0,"parameterNumber":2,"parameterNumberName":"U-component_of_WINDS"},"data":[0,0,0,0,0,0,0,0,0,0,0,0,0,0,0,0,0,0,0,0,0,0,0,0,0,0,0,0,0,0,0,0,0,0,0,0,0,0,0,0,0,0,0,0,0,0,0,0,0,0,0,0,0,0,0,0,0,0,1.221,1.2212,0,1.2341,1.2343,1.2344,1.2382,1.2382,1.2381,1.238,1.2524,1.2529,1.2533,0,0,0,0,0,0,0,0,0,0,0,0,0,1.2002,1.2006,1.221,1.2212,1.2214,1.2341,1.2343,1.2345,1.2383,1.2382,1.2381,1.238,1.2523,1.2528,1.2533,0,0,0,0,0,0,0,0,0,0,0,0,0,1.2109,1.2007,1.221,1.2248,1.2252,1.2341,1.2343,1.2345,1.2383,1.2382,1.2381,1.238,1.2521,1.2528,1.2534,1.2598,0,0,1.2555,1.2558,0,0,0,0,0,0,0,0,1.2103,1.2117,1.2241,1.2245,1.2251,1.2344,1.2322,1.243,1.2383,1.2334,1.238,1.2379,1.2466,1.2477,1.2504,1.2604,1.2611,1.2555,1.256,1.2562,1.2564,0,0,0,0,0,0,0,1.2095,1.2111,1.2263,1.2242,1.2248,1.2261,1.2275,1.2343,1.2405,1.2338,1.2341,1.2355,1.2469,1.2498,1.2508,1.2613,1.2555,1.2561,1.2565,1.2568,1.2772,1.2773,0,0,0,0,0,0,1.208,1.2105,1.2258,1.2266,1.2172,1.2265,1.2281,1.2315,1.2404,1.2416,1.2356,1.2357,1.2487,1.25,1.2513,1.2593,1.2562,1.2569,1.2573,1.277,1.2772,1.2773,0,0,0,0,0,0,1.2076,1.2094,1.2253,1.2186,1.2208,1.227,1.2308,1.2319,1.2348,1.2417,1.243,1.2374,1.2486,1.2504,1.2576,1.2599,1.2572,1.2578,1.2769,1.2771,1.2773,1.2754,0,0,0,0,0,0,1.2069,1.2092,1.2114,1.2186,1.2211,1.2311,1.231,1.2322,1.2358,1.236,1.2438,1.2449,1.2487,1.2565,1.2582,1.2608,1.2583,1.2767,1.277,1.2772,1.2753,1.2755,1.2757,0,0,0,0,0,1.2062,1.2106,1.2115,1.2134,1.224,1.2312,1.2326,1.2365,1.236,1.2385,1.2429,1.2447,1.2593,1.2572,1.2592,1.262,1.2766,1.2769,1.2772,1.2752,1.2755,1.2757,0,0,0,0,0,0,1.2039,1.2116,1.2127,1.2196,1.2246,1.2318,1.235,1.2367,1.2423,1.2423,1.2473,1.249,1.2558,1.2596,1.2572,1.2686,1.268,1.2687,1.2658,1.2662,1.2664,1.2654,1.2589,0,0,0,0,0,1.2041,1.209,1.2156,1.221,1.2234,1.2288,1.2321,1.2346,1.2402,1.2425,1.2475,1.2531,1.259,1.2628,1.2686,1.2758,1.2776,1.2787,1.2789,1.279,1.2796,1.2838,1.2844,1.2783,1.2783,1.2783,0,0,1.2048,1.2096,1.2124,1.2206,1.2249,1.2301,1.2306,1.2361,1.2401,1.2435,1.2504,1.2543,1.2609,1.2681,1.2716,1.2715,1.2817,1.2794,1.2795,1.28,1.2842,1.2847,1.2852,1.2786,1.2785,1.2785,0,0,1.2086,1.2126,1.2175,1.2217,1.228,1.2315,1.2326,1.2395,1.2421,1.2491,1.2517,1.2567,1.2667,1.2713,1.2749,1.2803,1.2822,1.2821,1.2832,1.2872,1.2877,1.2882,1.2902,1.2908,1.2826,1.2826,1.2826,0,1.2087,1.2163,1.22,1.2252,1.2289,1.2317,1.2369,1.2409,1.2489,1.2514,1.2511,1.2636,1.2683,1.2766,1.2779,1.2807,1.2824,1.2813,1.2873,1.2878,1.2883,1.2902,1.291,1.2826,1.2826,1.2826,1.2826,0,1.2162,1.2214,1.2247,1.2319,1.2359,1.2411,1.2458,1.2495,1.2516,1.2552,1.2624,1.2681,1.275,1.2772,1.2795,1.2859,1.2856,1.2862,1.2858,1.2887,1.2906,1.2914,1.2825,1.2825,1.2825,1.2825,0,0,1.2191,1.228,1.2292,1.2325,1.2395,1.2439,1.2493,1.2557,1.2588,1.2642,1.269,1.2773,1.2778,1.2819,1.2848,1.2883,1.2923,1.2885,1.2888,1.2891,1.2997,1.2993,1.3001,1.2935,1.2936,1.2938,1.2992,0,1.2238,1.2332,1.2366,1.2445,1.2495,1.2522,1.257,1.262,1.2655,1.2704,1.2744,1.2802,1.2805,1.283,1.2865,1.291,1.2945,1.2907,1.2983,1.2985,1.2966,1.3011,1.3007,1.3056,1.3,1.3001,1.3002,0,1.2307,1.2358,1.244,1.2503,1.2526,1.2567,1.2629,1.2675,1.2733,1.2756,1.2801,1.2827,1.2887,1.2877,1.2962,1.2935,1.2968,1.2995,1.2998,1.3008,1.2996,1.3023,1.3072,1.308,1.3014,1.3013,1.3013,0,1.232,1.241,1.2471,1.2498,1.2574,1.2602,1.2636,1.2692,1.2728,1.2783,1.2808,1.287,1.2905,1.2954,1.2997,1.2985,1.3078,1.3072,1.3101,1.31,1.312,1.3119,1.3176,1.314,1.3139,1.3139,1.3139,0,1.2371,1.2421,1.2477,1.2515,1.2572,1.2612,1.2668,1.2704,1.2753,1.28,1.2829,1.2873,1.2926,1.2978,1.3012,1.3077,1.3093,1.3115,1.3124,1.3113,1.311,1.3137,1.3135,1.3141,1.3141,1.314,1.314,0,1.2396,1.2436,1.2504,1.2569,1.2586,1.2626,1.2683,1.2722,1.2756,1.2816,1.2832,1.2888,1.2951,1.2997,1.3079,1.3102,1.3172,1.3181,1.3151,1.3156,1.3182,1.318,1.326,1.3273,1.3226,1.3227,1.3227,0,1.2426,1.2464,1.2532,1.2564,1.2596,1.2647,1.2683,1.2724,1.2762,1.2829,1.2861,1.2924,1.2977,1.3075,1.3125,1.3188,1.3199,1.3223,1.3209,1.3197,1.3201,1.3198,1.3203,1.3225,1.3226,1.3226,1.3226,0,1.2475,1.2492,1.2542,1.2598,1.264,1.2687,1.2735,1.276,1.281,1.2851,1.2913,1.2954,1.3035,1.3098,1.3166,1.3204,1.3224,1.3229,1.324,1.323,1.3211,1.3222,1.3157,1.3228,1.3228,1.3228,1.3228,1.3227,1.2505,1.254,1.2592,1.2647,1.2686,1.273,1.2769,1.2808,1.2859,1.2926,1.2948,1.3012,1.307,1.3162,1.32,1.3253,1.3253,1.3268,1.3272,1.3275,1.3274,1.3201,1.3265,1.3265,1.3265,1.3265,1.3265,0,1.2556,1.259,1.2639,1.2704,1.2747,1.2758,1.2812,1.2848,1.2903,1.2953,1.3003,1.3075,1.3136,1.319,1.3254,1.3286,1.3297,1.3302,1.3301,1.3309,1.327,1.3255,1.3292,1.3292,1.3292,1.3292,1.3292,1.3292,1.2587,1.2647,1.267,1.2751,1.2786,1.2847,1.2876,1.2918,1.2958,1.3035,1.3085,1.3118,1.3171,1.3238,1.3296,1.331,1.3333,1.3335,1.3352,1.3315,1.3312,1.3309,1.3295,1.334,1.334,1.3388,1.3388,1.3388]},{"header":{"parameterUnit":"m.s-1","parameterCategory":1,"la1":30.2991,"la2":30.254,"lo1":-89.0895,"lo2":-89.0444,"dy":0.0017,"dx":0.0017,"nx":28,"ny":28,"refTime":"2025-06-15T09:00:00:Z","depth":0,"parameterNumber":3,"parameterNumberName":"V-component_of_WINDS"},"data":[0,0,0,0,0,0,0,0,0,0,0,0,0,0,0,0,0,0,0,0,0,0,0,0,0,0,0,0,0,0,0,0,0,0,0,0,0,0,0,0,0,0,0,0,0,0,0,0,0,0,0,0,0,0,0,0,0,0,0.5864,0.5865,0,0.5898,0.5899,0.5899,0.5909,0.5908,0.5908,0.5908,0.5947,0.5948,0.5949,0,0,0,0,0,0,0,0,0,0,0,0,0,0.581,0.5811,0.5864,0.5865,0.5865,0.5898,0.5899,0.5899,0.5909,0.5908,0.5908,0.5908,0.5946,0.5948,0.5949,0,0,0,0,0,0,0,0,0,0,0,0,0,0.5838,0.5812,0.5864,0.5874,0.5875,0.5898,0.5899,0.59,0.5909,0.5908,0.5908,0.5908,0.5946,0.5947,0.5949,0.5967,0,0,0.5955,0.5956,0,0,0,0,0,0,0,0,0.5837,0.584,0.5872,0.5873,0.5874,0.5899,0.5894,0.5922,0.5909,0.5896,0.5908,0.5908,0.5931,0.5934,0.5941,0.5969,0.597,0.5955,0.5956,0.5957,0.5958,0,0,0,0,0,0,0,0.5835,0.5839,0.5878,0.5872,0.5874,0.5877,0.5881,0.59,0.5915,0.5897,0.5898,0.5901,0.5932,0.594,0.5942,0.5971,0.5955,0.5957,0.5958,0.5959,0.6016,0.6016,0,0,0,0,0,0,0.5831,0.5837,0.5877,0.5879,0.5854,0.5879,0.5883,0.5891,0.5915,0.5918,0.5902,0.5902,0.5937,0.594,0.5944,0.5967,0.5957,0.5959,0.596,0.6015,0.6016,0.6016,0,0,0,0,0,0,0.5829,0.5834,0.5875,0.5858,0.5864,0.588,0.589,0.5892,0.59,0.5918,0.5922,0.5907,0.5937,0.5941,0.5961,0.5968,0.596,0.5961,0.6015,0.6015,0.6016,0.6012,0,0,0,0,0,0,0.5828,0.5834,0.584,0.5858,0.5865,0.5891,0.589,0.5893,0.5903,0.5903,0.5924,0.5927,0.5937,0.5958,0.5963,0.597,0.5963,0.6014,0.6015,0.6016,0.6011,0.6012,0.6013,0,0,0,0,0,0.5826,0.5838,0.584,0.5845,0.5872,0.5891,0.5895,0.5905,0.5903,0.591,0.5922,0.5926,0.5966,0.596,0.5966,0.5974,0.6014,0.6015,0.6016,0.6011,0.6012,0.6013,0,0,0,0,0,0,0.582,0.584,0.5843,0.5861,0.5874,0.5893,0.5902,0.5906,0.5921,0.5921,0.5934,0.5938,0.5957,0.5968,0.596,0.5993,0.599,0.5992,0.5985,0.5986,0.5987,0.5984,0.5964,0,0,0,0,0,0.5821,0.5834,0.5851,0.5865,0.5872,0.5885,0.5894,0.5901,0.5915,0.5922,0.5935,0.595,0.5966,0.5977,0.5993,0.6013,0.6018,0.6021,0.6022,0.6023,0.6024,0.6037,0.6039,0.6019,0.6019,0.6019,0,0,0.5823,0.5835,0.5843,0.5864,0.5875,0.5889,0.589,0.5905,0.5916,0.5924,0.5943,0.5954,0.5972,0.5992,0.6002,0.6001,0.6031,0.6024,0.6024,0.6026,0.6038,0.604,0.6041,0.602,0.602,0.602,0,0,0.5834,0.5844,0.5857,0.5868,0.5884,0.5894,0.5897,0.5915,0.5922,0.5941,0.5948,0.5962,0.5989,0.6002,0.6012,0.6028,0.6033,0.6033,0.6037,0.6049,0.605,0.6052,0.6058,0.606,0.6035,0.6035,0.6035,0,0.5834,0.5854,0.5863,0.5878,0.5888,0.5895,0.5909,0.592,0.5941,0.5948,0.5947,0.5982,0.5994,0.6018,0.6022,0.603,0.6035,0.6031,0.6049,0.6051,0.6052,0.6059,0.6061,0.6035,0.6035,0.6035,0.6035,0,0.5854,0.5869,0.5877,0.5897,0.5908,0.5922,0.5934,0.5944,0.595,0.596,0.598,0.5996,0.6015,0.6021,0.6027,0.6046,0.6045,0.6046,0.6045,0.6054,0.606,0.6063,0.6034,0.6034,0.6034,0.6034,0,0,0.5862,0.5887,0.589,0.5899,0.5918,0.593,0.5945,0.5963,0.5972,0.5986,0.6,0.6023,0.6024,0.6036,0.6044,0.6054,0.6067,0.6054,0.6055,0.6057,0.6089,0.6088,0.6091,0.607,0.607,0.6071,0.6088,0,0.5876,0.5902,0.5911,0.5933,0.5946,0.5954,0.5967,0.5981,0.5991,0.6005,0.6016,0.6032,0.6032,0.604,0.605,0.6063,0.6073,0.6062,0.6084,0.6085,0.6079,0.6094,0.6093,0.6109,0.609,0.6091,0.6091,0,0.5894,0.5908,0.5931,0.5949,0.5956,0.5967,0.5985,0.5998,0.6014,0.6021,0.6033,0.604,0.6058,0.6055,0.608,0.6071,0.6081,0.6089,0.609,0.6093,0.6089,0.6098,0.6114,0.6116,0.6095,0.6095,0.6094,0,0.5899,0.5923,0.594,0.5948,0.5969,0.5977,0.5987,0.6003,0.6013,0.6029,0.6036,0.6054,0.6064,0.6078,0.6091,0.6087,0.6115,0.6112,0.6122,0.6121,0.6128,0.6127,0.6146,0.6133,0.6133,0.6133,0.6133,0,0.5913,0.5927,0.5943,0.5953,0.597,0.598,0.5997,0.6007,0.6021,0.6035,0.6043,0.6056,0.6071,0.6086,0.6096,0.6115,0.612,0.6126,0.6129,0.6126,0.6125,0.6133,0.6132,0.6133,0.6133,0.6133,0.6133,0,0.592,0.5931,0.595,0.5969,0.5974,0.5985,0.6001,0.6013,0.6023,0.604,0.6045,0.6061,0.6079,0.6093,0.6117,0.6124,0.6145,0.6147,0.6139,0.614,0.6149,0.6148,0.6174,0.6178,0.6162,0.6162,0.6162,0,0.5928,0.5939,0.5958,0.5968,0.5977,0.5992,0.6002,0.6014,0.6025,0.6044,0.6054,0.6072,0.6088,0.6117,0.6132,0.6151,0.6154,0.6162,0.6157,0.6154,0.6155,0.6154,0.6156,0.6162,0.6163,0.6163,0.6163,0,0.5942,0.5947,0.5961,0.5978,0.599,0.6004,0.6018,0.6025,0.6039,0.6052,0.607,0.6082,0.6106,0.6125,0.6145,0.6157,0.6163,0.6164,0.6167,0.6165,0.616,0.6163,0.6141,0.6164,0.6163,0.6163,0.6163,0.6163,0.5951,0.5961,0.5976,0.5992,0.6004,0.6017,0.6028,0.604,0.6055,0.6075,0.6081,0.61,0.6118,0.6145,0.6157,0.6173,0.6173,0.6177,0.6179,0.618,0.618,0.6156,0.6177,0.6177,0.6177,0.6177,0.6177,0,0.5965,0.5976,0.599,0.6009,0.6022,0.6025,0.6041,0.6052,0.6068,0.6084,0.6099,0.612,0.6139,0.6155,0.6175,0.6185,0.6188,0.6189,0.6189,0.6192,0.6178,0.6174,0.6186,0.6186,0.6186,0.6186,0.6186,0.6186,0.5975,0.5992,0.5999,0.6023,0.6034,0.6052,0.6061,0.6073,0.6086,0.6109,0.6124,0.6134,0.615,0.6171,0.6189,0.6193,0.62,0.6201,0.6207,0.6194,0.6193,0.6192,0.6187,0.6203,0.6203,0.6219,0.6219,0.6219]}]]